Content
SEND FEEDBACK

Daily
Averages
Monthly
Summary
Switzerland

GENEVA, SWITZERLAND


Home > Europe > Switzerland
Elevation: 1364 feet     Latitude: 46 15N     Longitude: 006 08E

WEATHER
 
SELECT A DAY
Number of Records: 305,729;   Date Range: 7/1/96 - 7/29/14
 
SHARE

PRINT THIS DATA

[ ← Previous Day ]
WEATHER ALMANAC - MARCH 25, 2013
[ Next Day → ]
[ °C ]   °F
Weather ElementAverageHighLow
Temperature37.2 °F39.2 °F (11:50 am)33.8 °F (5:20 am)
Dewpoint32.9 °F34 °F (9:00 pm)31 °F (1:00 am)
Humidity83.1 %100 % (5:20 am)68 % (2:00 pm)
Barometer29.67 in29.73 in (8:00 am)29.62 in (4:50 pm)
Wind Speed5.9 mph11.5 mph (9:00 pm)
Weather ElementAverage
Visibility3 mi
Wind DirectionNE (40.3 °)

Weather ElementTotal
Precipitation---
Heating Degree Days28.5 (Base 65)
Averaged from 66 records on March 25, 2013
WEATHER CONDITIONS BREAKOUT
WIND DIRECTION BREAKOUT
WEATHER BY HOUR - MARCH 25, 2013
[ °C ]   °F
Local TimeTemperatureDewpointHumidityBarometerVisibilityWind DirectionWind SpeedGust SpeedPrecipitationEventsConditions
12:20 AM35.6 °F32.0 °F87 %29.65 in3.1 miNE (40°)10.4 mphRain-SnowLight Rain
12:50 AM35.6 °F32.0 °F87 %29.65 in3.1 miNE (50°)10.4 mphRainLight Rain
1:00 AM36.0 °F31.0 °F76 %29.72 in3.0 miNE (40°)10.4 mphSnowLight Snow
1:20 AM35.6 °F32.0 °F87 %29.65 in3.1 miNE (50°)10.4 mphRainLight Rain
1:50 AM35.6 °F32.0 °F87 %29.65 in3.1 miNE (50°)9.2 mphRainLight Rain
2:00 AM36.0 °F32.0 °F80 %29.71 inNE (50°)10.4 mph
2:50 AM35.6 °F32.0 °F87 %29.65 in2.5 miENE (60°)6.9 mphRainLight Rain
3:00 AM35.0 °F32.0 °F86 %29.70 inNE (50°)9.2 mph
3:20 AM35.6 °F32.0 °F87 %29.65 in2.5 miNE (50°)8.1 mphRainLight Rain
3:50 AM35.6 °F32.0 °F87 %29.65 in2.5 miNE (50°)6.9 mphRainLight Rain
4:20 AM35.6 °F32.0 °F87 %29.65 in2.5 miENE (60°)6.9 mphRainLight Rain
4:50 AM35.6 °F33.8 °F93 %29.65 in2.5 miVariable2.3 mphRainLight Rain
5:00 AM35.0 °F33.0 °F91 %29.71 inNorth (350°)2.3 mph
5:20 AM33.8 °F33.8 °F100 %29.65 in2.2 miVariable1.2 mphRainLight Rain
5:50 AM35.6 °F33.8 °F93 %29.65 in2.2 miVariable1.2 mphRainLight Rain
6:00 AM35.0 °F33.0 °F90 %29.71 inNorth2.3 mph
6:20 AM35.6 °F33.8 °F93 %29.65 in2.2 miVariable1.2 mphRainLight Rain
6:50 AM35.6 °F33.8 °F93 %29.65 in2.2 miVariable1.2 mphRainLight Rain
7:00 AM35.0 °F33.0 °F90 %29.72 in2.0 miNorth (10°)2.3 mphRainLight Rain
7:20 AM35.6 °F33.8 °F93 %29.65 in1.9 miVariable1.2 mphRainLight Rain
7:50 AM35.6 °F33.8 °F93 %29.65 in1.9 miENE (60°)4.6 mphRainLight Rain
8:00 AM35.0 °F33.0 °F88 %29.73 inENE (60°)6.9 mph
8:20 AM35.6 °F33.8 °F93 %29.68 in1.9 miENE (60°)5.8 mphRainLight Rain
8:50 AM35.6 °F33.8 °F93 %29.68 in1.9 miENE (60°)5.8 mphOvercast
9:00 AM36.0 °F33.0 °F82 %29.73 inNE (50°)6.9 mph
9:20 AM35.6 °F33.8 °F93 %29.68 in2.2 miNE (50°)6.9 mphOvercast
9:50 AM35.6 °F33.8 °F93 %29.68 in2.8 miNE (50°)5.8 mphOvercast
10:20 AM37.4 °F32.0 °F81 %29.68 in2.8 miNE (50°)4.6 mphOvercast
10:50 AM37.4 °F32.0 °F81 %29.68 in3.1 miNE (50°)4.6 mphOvercast
11:00 AM38.0 °F33.0 °F74 %29.72 inNNE (30°)4.6 mph
11:20 AM37.4 °F32.0 °F81 %29.68 in3.1 miENE (60°)4.6 mphOvercast
11:50 AM39.2 °F32.0 °F75 %29.65 in3.7 miVariable3.5 mphMostly Cloudy
12:00 PM38.0 °F32.0 °F71 %29.71 inNNE (30°)4.6 mph
12:20 PM39.2 °F32.0 °F75 %29.65 in3.7 miVariable3.5 mphOvercast
12:50 PM39.2 °F33.8 °F81 %29.65 in3.7 miVariable3.5 mphOvercast
1:00 PM39.0 °F33.0 °F71 %29.70 in4.0 miNNE (20°)4.6 mphMist
1:20 PM39.2 °F32.0 °F75 %29.65 in3.7 miNE (50°)3.5 mphOvercast
1:50 PM39.2 °F32.0 °F75 %29.65 in3.7 miENE (60°)4.6 mphOvercast
2:00 PM39.0 °F32.0 °F68 %29.70 inENE (60°)4.6 mph
2:20 PM39.2 °F33.8 °F81 %29.65 in3.7 miVariable3.5 mphOvercast
2:50 PM39.2 °F33.8 °F81 %29.65 in3.7 miVariable3.5 mphOvercast
3:00 PM39.0 °F32.0 °F69 %29.70 inNorth (10°)2.3 mph
3:20 PM39.2 °F33.8 °F81 %29.65 in3.7 miVariable2.3 mphOvercast
3:50 PM39.2 °F33.8 °F81 %29.65 in3.7 miNE (40°)4.6 mphOvercast
4:20 PM39.2 °F33.8 °F81 %29.65 in3.7 miNNE (30°)5.8 mphOvercast
4:50 PM39.2 °F33.8 °F81 %29.62 in3.1 miNE (40°)5.8 mphOvercast
5:00 PM39.0 °F33.0 °F72 %29.68 inNE (40°)6.9 mph
5:20 PM39.2 °F33.8 °F81 %29.65 in3.1 miNNE (20°)5.8 mphMostly Cloudy
5:50 PM39.2 °F33.8 °F81 %29.65 in3.1 miNNE (30°)5.8 mphMostly Cloudy
6:00 PM39.0 °F33.0 °F72 %29.69 inNNE (30°)6.9 mph
6:20 PM39.2 °F33.8 °F81 %29.65 in3.1 miNNE (30°)6.9 mphMostly Cloudy
6:50 PM39.2 °F33.8 °F81 %29.65 in3.1 miNE (40°)6.9 mphOvercast
7:00 PM38.0 °F32.0 °F72 %29.70 in3.0 miNE (40°)6.9 mphMist
7:20 PM37.4 °F33.8 °F87 %29.65 in3.1 miNE (50°)6.9 mphOvercast
7:50 PM37.4 °F33.8 °F87 %29.65 in3.1 miNE (50°)8.1 mphRainOvercast
8:00 PM38.0 °F33.0 °F76 %29.71 inNE (50°)9.2 mph
8:20 PM37.4 °F33.8 °F87 %29.65 in3.1 miNE (50°)9.2 mphRainOvercast
8:50 PM37.4 °F33.8 °F87 %29.65 in3.1 miNE (50°)6.9 mphRainLight Rain
9:00 PM38.0 °F34.0 °F80 %29.71 inNE (40°)11.5 mph
9:20 PM37.4 °F33.8 °F87 %29.65 in3.1 miNE (40°)9.2 mphRainLight Rain
9:50 PM37.4 °F32.0 °F81 %29.65 in3.1 miNNE (30°)5.8 mphOvercast
10:20 PM37.4 °F32.0 °F81 %29.65 in3.1 miNE (40°)8.1 mphOvercast
10:50 PM37.4 °F32.0 °F81 %29.65 in3.7 miENE (60°)9.2 mphOvercast
11:00 PM37.0 °F32.0 °F74 %29.70 inNE (50°)8.1 mph
11:20 PM37.4 °F32.0 °F81 %29.65 in3.7 miNE (50°)8.1 mphOvercast
11:50 PM37.4 °F32.0 °F81 %29.65 in3.7 miNE (40°)8.1 mphOvercast
Hourly data recorded from LSGG, located miles away from Geneva, Switzerland







STORIES FROM OUR PARTNERS